Date,Installs,Update checks
2018-12-18,4,0
2018-12-19,10,2
2018-12-20,11,0
2018-12-21,14,1
2018-12-22,17,3
2018-12-23,14,11
2018-12-24,11,10
2018-12-25,12,12
2018-12-26,9,15
2018-12-27,20,19
2018-12-28,26,25
2018-12-29,13,26
2018-12-30,14,23
2018-12-31,18,25
2019-01-01,14,33
2019-01-02,15,39
2019-01-03,12,40
2019-01-04,16,45
2019-01-05,11,49
2019-01-06,12,49
2019-01-07,6,52
2019-01-08,8,62
2019-01-09,14,57
2019-01-10,19,62
2019-01-11,10,59
2019-01-12,9,51
2019-01-13,10,67
2019-01-14,8,64
2019-01-15,13,68
2019-01-16,23,69
2019-01-17,18,79
2019-01-18,7,78
2019-01-19,5,72
2019-01-20,12,75
2019-01-21,7,87
2019-01-22,8,84
2019-01-23,15,93
2019-01-24,15,88
2019-01-25,16,94
2019-01-26,8,98
2019-01-27,9,92
2019-01-28,8,97
2019-01-29,7,99
2019-01-30,11,93
2019-01-31,12,93
2019-02-01,12,79
2019-02-02,14,92
2019-02-03,15,89
2019-02-04,11,79
2019-02-05,10,79
2019-02-06,10,82
2019-02-07,18,86
2019-02-08,16,86
2019-02-09,11,105
2019-02-10,16,108
2019-02-11,22,127
2019-02-12,15,135
2019-02-13,15,131
2019-02-14,18,128
2019-02-15,14,144
2019-02-16,9,138
2019-02-17,14,133
2019-02-18,15,169
2019-02-19,16,156
2019-02-20,12,162
2019-02-21,13,149
2019-02-22,21,156
2019-02-23,20,151
2019-02-24,18,156
2019-02-25,16,174
2019-02-26,11,162
2019-02-27,14,171
2019-02-28,9,176
2019-03-01,12,172
2019-03-02,10,151
2019-03-03,12,157
2019-03-04,7,176
2019-03-05,8,181
2019-03-06,5,178
2019-03-07,6,170
2019-03-08,2,167
2019-03-09,8,147
2019-03-10,10,157
2019-03-11,17,176
2019-03-12,22,167
2019-03-13,17,187
2019-03-14,4,188
2019-03-15,11,192
2019-03-16,8,165
2019-03-17,6,181
2019-03-18,9,196
2019-03-19,11,197
2019-03-20,13,199
2019-03-21,13,193
2019-03-22,15,203
2019-03-23,11,184
2019-03-24,11,180
2019-03-25,3,228
2019-03-26,5,200
2019-03-27,11,209
2019-03-28,11,212
2019-03-29,9,216
2019-03-30,5,191
2019-03-31,6,184
2019-04-01,7,233
2019-04-02,7,230
2019-04-03,8,232
2019-04-04,7,218
2019-04-05,6,191
2019-04-06,13,177
2019-04-07,16,214
2019-04-08,10,244
2019-04-09,16,240
2019-04-10,13,243
2019-04-11,11,238
2019-04-12,10,245
2019-04-13,8,210
2019-04-14,16,216
2019-04-15,11,258
2019-04-16,15,252
2019-04-17,11,241
2019-04-18,14,262
2019-04-19,11,236
2019-04-20,7,232
2019-04-21,3,234
2019-04-22,8,270
2019-04-23,13,267
2019-04-24,11,256
2019-04-25,7,261
2019-04-26,12,268
2019-04-27,10,248
2019-04-28,6,261
2019-04-29,19,254
2019-04-30,14,265
2019-05-01,7,205
2019-05-02,4,227
2019-05-03,6,220
2019-05-04,5,242
2019-05-05,3,249
2019-05-06,5,258
2019-05-07,5,252
2019-05-08,6,270
2019-05-09,5,272
2019-05-10,5,256
2019-05-11,8,240
2019-05-12,9,224
2019-05-13,6,261
2019-05-14,5,266
2019-05-15,3,252
2019-05-16,4,262
2019-05-17,7,254
2019-05-18,7,228
2019-05-19,3,223
2019-05-20,2,257
2019-05-21,3,252
2019-05-22,0,257
2019-05-23,0,243
2019-05-24,0,220
2019-05-25,0,237
2019-05-26,1,224
2019-05-27,0,235
2019-05-28,0,255
2019-05-29,0,238
2019-05-30,0,252
2019-05-31,1,223
2019-06-01,1,215
2019-06-02,3,225
2019-06-03,3,222
2019-06-04,4,242
2019-06-05,4,245
2019-06-06,4,227
2019-06-07,2,201
2019-06-08,4,198
2019-06-09,11,200
2019-06-10,14,269
2019-06-11,5,233
2019-06-12,8,231
2019-06-13,9,233
2019-06-14,8,233
2019-06-15,8,232
2019-06-16,10,188
2019-06-17,6,259
2019-06-18,6,219
2019-06-19,2,232
2019-06-20,3,222
2019-06-21,4,233
2019-06-22,5,176
2019-06-23,2,206
2019-06-24,7,243
2019-06-25,7,232
2019-06-26,4,230
2019-06-27,5,223
2019-06-28,8,225
2019-06-29,8,197
2019-06-30,5,195
2019-07-01,9,225
2019-07-02,10,222
2019-07-03,6,225
2019-07-04,9,225
2019-07-05,5,224
2019-07-06,13,191
2019-07-07,14,192
2019-07-08,11,232
2019-07-09,7,229
2019-07-10,10,209
2019-07-11,10,220
2019-07-12,9,232
2019-07-13,12,195
2019-07-14,12,200
2019-07-15,12,234
2019-07-16,10,247
2019-07-17,6,229
2019-07-18,5,218
2019-07-19,7,227
2019-07-20,2,198
2019-07-21,4,204
2019-07-22,5,239
2019-07-23,5,239
2019-07-24,1,232
2019-07-25,3,222
2019-07-26,1,234
2019-07-27,0,195
2019-07-28,0,215
2019-07-29,2,222
2019-07-30,3,220
2019-07-31,3,231
2019-08-01,2,226
2019-08-02,1,206
2019-08-03,0,198
2019-08-04,0,195
2019-08-05,3,223
2019-08-06,3,218
2019-08-07,5,229
2019-08-08,1,220
2019-08-09,3,207
2019-08-10,3,206
2019-08-11,4,197
2019-08-12,3,219
2019-08-13,2,209
2019-08-14,2,218
2019-08-15,3,223
2019-08-16,3,204
2019-08-17,5,193
2019-08-18,4,208
2019-08-19,2,213
2019-08-20,2,211
2019-08-21,3,213
2019-08-22,3,206
2019-08-23,1,198
2019-08-24,1,178
2019-08-25,2,182
2019-08-26,3,235
2019-08-27,1,214
2019-08-28,0,213
2019-08-29,1,211
2019-08-30,1,188
2019-08-31,2,184
2019-09-01,2,179
2019-09-02,3,197
2019-09-03,0,217
2019-09-04,0,205
2019-09-05,1,218
2019-09-06,1,206
2019-09-07,1,184
2019-09-08,1,184
2019-09-09,2,217
2019-09-10,4,211
2019-09-11,5,197
2019-09-12,4,202
2019-09-13,2,178
2019-09-14,1,180
2019-09-15,1,183
2019-09-16,0,206
2019-09-17,0,201
2019-09-18,0,189
2019-09-19,1,197
2019-09-20,0,199
2019-09-21,0,170
2019-09-22,1,166
2019-09-23,2,200
2019-09-24,5,180
2019-09-25,7,198
2019-09-26,3,179
2019-09-27,2,190
2019-09-28,4,186
2019-09-29,4,184
2019-09-30,3,191
2019-10-01,5,164
2019-10-02,3,172
2019-10-03,2,151
2019-10-04,3,170
2019-10-05,2,166
2019-10-06,3,178
2019-10-07,1,190
2019-10-08,0,186
2019-10-09,1,211
2019-10-10,0,209
2019-10-11,0,193
2019-10-12,0,198
2019-10-13,0,187
2019-10-14,0,194
2019-10-15,1,194
2019-10-16,2,186
2019-10-17,2,188
2019-10-18,4,188
2019-10-19,1,158
2019-10-20,2,171
2019-10-21,0,192
2019-10-22,0,187
2019-10-23,1,189
2019-10-24,3,190
2019-10-25,2,188
2019-10-26,1,166
2019-10-27,3,151
2019-10-28,0,170
2019-10-29,0,177
2019-10-30,0,179
2019-10-31,0,192
2019-11-01,1,175
2019-11-02,1,153
2019-11-03,0,142
2019-11-04,0,196
2019-11-05,0,169
2019-11-06,1,185
2019-11-07,0,184
2019-11-08,1,174
2019-11-09,1,156
2019-11-10,0,160
2019-11-11,0,171
2019-11-12,0,175
2019-11-13,0,168
2019-11-14,0,177
2019-11-15,1,174
2019-11-16,0,187
2019-11-17,0,151
2019-11-18,0,201
2019-11-19,0,180
2019-11-20,0,162
2019-11-21,0,184
2019-11-22,0,170
2019-11-23,2,154
2019-11-24,3,165
2019-11-25,2,204
2019-11-26,0,175
2019-11-27,0,174
2019-11-28,0,174
2019-11-29,0,185
2019-11-30,0,160
2019-12-01,1,151
2019-12-02,1,176
2019-12-03,1,177
2019-12-04,1,170
2019-12-05,0,162
2019-12-06,0,182
2019-12-07,0,135
2019-12-08,0,180
2019-12-09,0,194
2019-12-10,1,200
2019-12-11,1,183
2019-12-12,2,188
2019-12-13,2,184
2019-12-14,1,181
2019-12-15,0,169
2019-12-16,0,196
2019-12-17,0,182
2019-12-18,2,185
2019-12-19,1,186
2019-12-20,3,188
2019-12-21,0,170
2019-12-22,0,164
2019-12-23,0,200
2019-12-24,0,189
2019-12-25,0,165
2019-12-26,0,185
2019-12-27,0,182
2019-12-28,1,169
2019-12-29,0,161
2019-12-30,2,169
2019-12-31,1,185
2020-01-01,0,149
2020-01-02,0,178
2020-01-03,0,166
2020-01-04,0,174
2020-01-05,0,157
2020-01-06,0,187
2020-01-07,0,174
2020-01-08,0,172
2020-01-09,1,171
2020-01-10,1,190
2020-01-11,0,159
2020-01-12,0,161
2020-01-13,1,181
2020-01-14,1,162
2020-01-15,0,175
2020-01-16,0,170
2020-01-17,0,154
2020-01-18,0,152
2020-01-19,1,165
2020-01-20,1,161
2020-01-21,0,153
2020-01-22,0,152
2020-01-23,0,138
2020-01-24,0,127
2020-01-25,0,139
2020-01-26,0,140
2020-01-27,1,136
2020-01-28,0,136
2020-01-29,1,146
2020-01-30,0,141
2020-01-31,1,151
2020-02-01,0,161
2020-02-02,0,146
2020-02-03,0,148
2020-02-04,0,154
2020-02-05,0,159
2020-02-06,1,168
2020-02-07,0,178
2020-02-08,0,54
2020-02-09,0,69
2020-02-10,1,180
2020-02-11,0,168
2020-02-12,0,160
2020-02-13,2,153
2020-02-14,0,167
2020-02-15,0,143
2020-02-16,0,166
2020-02-17,1,162
2020-02-18,0,170
2020-02-19,0,180
2020-02-20,0,165
2020-02-21,0,171
2020-02-22,1,164
2020-02-23,0,167
2020-02-24,1,164
2020-02-25,1,178
2020-02-26,0,164
2020-02-27,0,170
2020-02-28,1,170
2020-02-29,2,155
2020-03-01,0,173
2020-03-02,0,171
2020-03-03,0,174
2020-03-04,2,156
2020-03-05,2,167
2020-03-06,1,175
2020-03-07,1,161
2020-03-08,1,156
2020-03-09,0,170
2020-03-10,0,158
2020-03-11,0,177
2020-03-12,0,177
2020-03-13,0,169
2020-03-14,0,156
2020-03-15,0,158
2020-03-16,1,177
2020-03-17,1,159
2020-03-18,0,152
2020-03-19,0,164
2020-03-20,0,173
2020-03-21,0,161
2020-03-22,0,154
2020-03-23,0,172
2020-03-24,1,152
2020-03-25,1,154
2020-03-26,1,165
2020-03-27,0,168
2020-03-28,0,146
2020-03-29,1,158
2020-03-30,0,161
2020-03-31,0,163
2020-04-01,1,152
2020-04-02,0,165
2020-04-03,1,146
2020-04-04,1,154
2020-04-05,0,154
2020-04-06,0,151
2020-04-07,1,161
2020-04-08,0,158
2020-04-09,1,162
2020-04-10,1,153
2020-04-11,1,145
2020-04-12,0,144
2020-04-13,0,149
2020-04-14,0,151
2020-04-15,0,154
2020-04-16,0,138
2020-04-17,0,167
2020-04-18,1,139
2020-04-19,1,140
2020-04-20,0,173
2020-04-21,0,149
2020-04-22,0,159
2020-04-23,0,147
2020-04-24,0,159
2020-04-25,0,140
2020-04-26,0,151
2020-04-27,1,146
2020-04-28,0,148
2020-04-29,0,143
2020-04-30,0,152
2020-05-01,0,139
2020-05-02,1,142
2020-05-03,0,129
2020-05-04,0,129
2020-05-05,0,143
2020-05-06,0,148
2020-05-07,1,159
2020-05-08,0,144
2020-05-09,0,135
2020-05-10,0,142
2020-05-11,0,147
2020-05-12,0,142
2020-05-13,2,145
2020-05-14,0,146
2020-05-15,1,147
2020-05-16,0,127
2020-05-17,0,137
2020-05-18,0,146
2020-05-19,0,143
2020-05-20,1,133
2020-05-21,0,130
2020-05-22,6,149
2020-05-23,6,136
2020-05-24,2,142
2020-05-25,3,139
2020-05-26,4,130
2020-05-27,1,142
2020-05-28,2,131
2020-05-29,5,157
2020-05-30,3,127
2020-05-31,3,125
2020-06-01,5,145
2020-06-02,16,124
2020-06-03,3,152
2020-06-04,3,143
2020-06-05,1,136
2020-06-06,5,141
2020-06-07,8,132
2020-06-08,2,134
2020-06-09,0,146
2020-06-10,1,140
2020-06-11,0,138
2020-06-12,2,155
2020-06-13,0,123
2020-06-14,0,135
2020-06-15,0,137
2020-06-16,1,140
2020-06-17,0,135
2020-06-18,0,133
2020-06-19,1,145
2020-06-20,1,128
2020-06-21,0,129
2020-06-22,2,126
2020-06-23,0,143
2020-06-24,0,130
2020-06-25,0,124
2020-06-26,2,125
2020-06-27,2,137
2020-06-28,1,140
2020-06-29,2,141
2020-06-30,3,127
2020-07-01,0,140
2020-07-02,0,139
2020-07-03,0,140
2020-07-04,0,118
2020-07-05,0,128
2020-07-06,1,125
2020-07-07,1,122
2020-07-08,0,125
2020-07-09,0,133
2020-07-10,0,126
2020-07-11,0,101
2020-07-12,1,133
2020-07-13,0,129
2020-07-14,0,126
2020-07-15,0,123
2020-07-16,2,114
2020-07-17,1,130
2020-07-18,0,113
2020-07-19,2,100
2020-07-20,0,130
2020-07-21,1,132
2020-07-22,0,128
2020-07-23,0,133
2020-07-24,2,116
2020-07-25,1,114
2020-07-26,1,118
2020-07-27,2,141
2020-07-28,1,136
2020-07-29,4,133
2020-07-30,2,130
2020-07-31,0,128
2020-08-01,1,117
2020-08-02,1,121
2020-08-03,1,133
2020-08-04,0,132
2020-08-05,0,115
2020-08-06,0,122
2020-08-07,1,135
2020-08-08,0,127
2020-08-09,2,114
2020-08-10,1,118
2020-08-11,0,102
2020-08-12,4,114
2020-08-13,0,130
2020-08-14,3,121
2020-08-15,0,121
2020-08-16,0,106
2020-08-17,0,131
2020-08-18,0,107
2020-08-19,0,117
2020-08-20,0,116
2020-08-21,0,127
2020-08-22,0,109
2020-08-23,2,119
2020-08-24,0,111
2020-08-25,0,115
2020-08-26,1,125
2020-08-27,1,116
2020-08-28,1,110
2020-08-29,0,104
2020-08-30,0,110
2020-08-31,0,115
2020-09-01,0,115
2020-09-02,0,121
2020-09-03,0,109
2020-09-04,0,122
2020-09-05,1,114
2020-09-06,0,107
2020-09-07,0,125
2020-09-08,0,136
2020-09-09,0,115
2020-09-10,0,125
2020-09-11,0,123
2020-09-12,1,113
2020-09-13,1,103
2020-09-14,0,131
2020-09-15,0,129
2020-09-16,0,121
2020-09-17,2,123
2020-09-18,0,121
2020-09-19,0,110
2020-09-20,0,121
2020-09-21,1,115
2020-09-22,1,122
2020-09-23,0,116
2020-09-24,0,136
2020-09-25,0,113
2020-09-26,0,105
2020-09-27,1,113
2020-09-28,1,110
2020-09-29,0,120
2020-09-30,0,113
2020-10-01,0,95
2020-10-02,0,87
2020-10-03,0,102
2020-10-04,2,103
2020-10-05,0,113
2020-10-06,0,99
2020-10-07,1,108
2020-10-08,0,111
2020-10-09,0,116
2020-10-10,0,117
2020-10-11,0,103
2020-10-12,0,112
2020-10-13,1,111
2020-10-14,0,106
2020-10-15,3,116
2020-10-16,1,118
2020-10-17,3,96
2020-10-18,1,101
2020-10-19,0,114
2020-10-20,0,98
2020-10-21,0,118
2020-10-22,0,100
2020-10-23,0,118
2020-10-24,0,96
2020-10-25,0,97
2020-10-26,0,131
2020-10-27,0,111
2020-10-28,0,109
2020-10-29,0,115
2020-10-30,0,106
2020-10-31,0,101
2020-11-01,0,99
2020-11-02,0,120
2020-11-03,0,113
2020-11-04,3,118
2020-11-05,0,106
2020-11-06,0,123
2020-11-07,0,88
2020-11-08,0,95
2020-11-09,2,112
2020-11-10,0,103
2020-11-11,1,109
2020-11-12,1,108
2020-11-13,1,102
2020-11-14,0,93
2020-11-15,0,114
2020-11-16,0,109
2020-11-17,1,101
2020-11-18,1,114
2020-11-19,2,96
2020-11-20,0,105
2020-11-21,1,107
2020-11-22,1,95
2020-11-23,0,111
2020-11-24,0,111
2020-11-25,0,102
2020-11-26,2,95
2020-11-27,1,113
2020-11-28,2,90
2020-11-29,1,99
2020-11-30,0,102
2020-12-01,0,110
2020-12-02,1,105
2020-12-03,0,100
2020-12-04,0,103
2020-12-05,3,89
2020-12-06,2,98
2020-12-07,0,102
2020-12-08,2,99
2020-12-09,2,104
2020-12-10,0,106
2020-12-11,0,93
2020-12-12,2,92
2020-12-13,1,90
2020-12-14,2,106
2020-12-15,0,101
2020-12-16,0,100
2020-12-17,0,105
2020-12-18,1,96
2020-12-19,0,87
2020-12-20,0,95
2020-12-21,1,109
2020-12-22,1,86
2020-12-23,1,92
2020-12-24,0,81
2020-12-25,0,80
2020-12-26,2,90
2020-12-27,1,85
2020-12-28,0,93
2020-12-29,0,91
2020-12-30,0,89
2020-12-31,1,87
2021-01-01,1,80
2021-01-02,0,91
2021-01-03,0,81
2021-01-04,0,97
2021-01-05,1,90
2021-01-06,0,92
2021-01-07,0,89
2021-01-08,2,98
2021-01-09,0,88
2021-01-10,1,90
2021-01-11,1,78
2021-01-12,0,90
2021-01-13,2,104
2021-01-14,1,96
2021-01-15,0,100
2021-01-16,0,84
2021-01-17,0,101
2021-01-18,0,95
2021-01-19,0,101
2021-01-20,0,96
2021-01-21,1,104
2021-01-22,0,92
2021-01-23,3,87
2021-01-24,0,91
2021-01-25,1,101
2021-01-26,0,105
2021-01-27,0,90
2021-01-28,0,76
2021-01-29,0,100
2021-01-30,0,73
2021-01-31,2,101
2021-02-01,2,98
2021-02-02,0,96
2021-02-03,1,98
2021-02-04,1,97
2021-02-05,3,103
2021-02-06,0,91
2021-02-07,0,96
2021-02-08,0,80
2021-02-09,1,77
2021-02-10,0,78
2021-02-11,0,71
2021-02-12,0,64
2021-02-13,1,66
2021-02-14,0,50
2021-02-15,1,85
2021-02-16,2,99
2021-02-17,1,88
2021-02-18,0,101
2021-02-19,0,98
2021-02-20,0,87
2021-02-21,0,102
2021-02-22,0,98
2021-02-23,2,106
2021-02-24,0,103
2021-02-25,1,104
2021-02-26,1,108
2021-02-27,3,98
2021-02-28,0,98
2021-03-01,1,118
2021-03-02,0,118
2021-03-03,1,110
2021-03-04,0,120
2021-03-05,1,107
2021-03-06,1,99
2021-03-07,1,103
2021-03-08,0,91
2021-03-09,0,76
2021-03-10,1,96
2021-03-11,1,78
2021-03-12,0,98
2021-03-13,1,78
2021-03-14,0,82
2021-03-15,2,75
2021-03-16,1,104
2021-03-17,0,72
2021-03-18,2,86
2021-03-19,0,83
2021-03-20,0,81
2021-03-21,1,57
2021-03-22,1,63
2021-03-23,0,72
2021-03-24,0,92
2021-03-25,0,74
2021-03-26,0,94
2021-03-27,0,71
2021-03-28,0,78
2021-03-29,0,75
2021-03-30,0,95
2021-03-31,0,64
2021-04-01,0,90
2021-04-02,2,76
2021-04-03,1,56
2021-04-04,0,69
2021-04-05,0,75
2021-04-06,0,89
2021-04-07,0,76
2021-04-08,0,84
2021-04-09,2,72
2021-04-10,0,67
2021-04-11,0,77
2021-04-12,0,69
2021-04-13,0,76
2021-04-14,0,78
2021-04-15,0,82
2021-04-16,0,112
2021-04-17,0,94
2021-04-18,0,99
2021-04-19,0,100
2021-04-20,0,116
2021-04-21,2,111
2021-04-22,0,107
2021-04-23,0,112
2021-04-24,0,105
2021-04-25,0,107
2021-04-26,0,102
2021-04-27,0,112
2021-04-28,0,110
2021-04-29,0,116
2021-04-30,2,104
2021-05-01,0,99
2021-05-02,0,88
2021-05-03,3,102
2021-05-04,0,100
2021-05-05,0,107
2021-05-06,1,109
2021-05-07,0,127
2021-05-08,0,97
2021-05-09,1,105
2021-05-10,2,111
2021-05-11,0,123
2021-05-12,0,99
2021-05-13,0,116
2021-05-14,0,116
2021-05-15,1,100
2021-05-16,0,100
2021-05-17,1,120
2021-05-18,0,114
2021-05-19,0,115
2021-05-20,1,108
2021-05-21,0,117
2021-05-22,0,107
2021-05-23,0,111
2021-05-24,0,117
2021-05-25,0,110
2021-05-26,0,108
2021-05-27,0,124
2021-05-28,0,114
2021-05-29,0,97
2021-05-30,1,105
2021-05-31,0,105
2021-06-01,0,108
2021-06-02,0,113
2021-06-03,0,115
2021-06-04,0,100
2021-06-05,0,49
2021-06-06,0,95
2021-06-07,0,106
2021-06-08,0,88
2021-06-09,0,100
2021-06-10,0,110
2021-06-11,0,107
2021-06-12,0,93
2021-06-13,0,97
2021-06-14,0,95
2021-06-15,1,95
2021-06-16,0,99
2021-06-17,1,101
2021-06-18,0,102
2021-06-19,1,87
2021-06-20,1,87
2021-06-21,0,104
2021-06-22,0,93
2021-06-23,0,92
2021-06-24,0,97
2021-06-25,0,104
2021-06-26,0,89
2021-06-27,0,89
2021-06-28,0,102
2021-06-29,0,96
2021-06-30,0,98
2021-07-01,0,89
2021-07-02,0,97
2021-07-03,2,101
2021-07-04,0,86
2021-07-05,0,81
2021-07-06,0,104
2021-07-07,0,101
2021-07-08,0,104
2021-07-09,0,99
2021-07-10,1,86
2021-07-11,1,89
2021-07-12,0,93
2021-07-13,0,91
2021-07-14,0,94
2021-07-15,0,104
2021-07-16,1,100
2021-07-17,0,92
2021-07-18,0,3
2021-07-19,0,25
2021-07-20,0,97
2021-07-21,0,84
2021-07-22,0,93
2021-07-23,1,96
2021-07-24,0,84
2021-07-25,0,90
2021-07-26,0,100
2021-07-27,0,99
2021-07-28,0,89
2021-07-29,0,94
2021-07-30,1,91
2021-07-31,0,90
2021-08-01,0,85
2021-08-02,0,88
2021-08-03,0,98
2021-08-04,0,91
2021-08-05,0,92
2021-08-06,1,97
2021-08-07,0,94
2021-08-08,0,73
2021-08-09,0,91
2021-08-10,0,92
2021-08-11,0,96
2021-08-12,0,68
2021-08-13,0,95
2021-08-14,0,81
2021-08-15,0,99
2021-08-16,0,84
2021-08-17,0,106
2021-08-18,0,88
2021-08-19,0,94
2021-08-20,0,86
2021-08-21,0,86
2021-08-22,0,82
2021-08-23,1,98
2021-08-24,0,88
2021-08-25,1,106
2021-08-26,0,80
2021-08-27,1,102
2021-08-28,0,96
2021-08-29,0,95
2021-08-30,0,92
2021-08-31,0,98
2021-09-01,1,91
2021-09-02,0,92
2021-09-03,0,96
2021-09-04,0,80
2021-09-05,1,82
2021-09-06,0,86
2021-09-07,0,98
2021-09-08,0,92
2021-09-09,1,97
2021-09-10,1,97
2021-09-11,1,90
2021-09-12,0,81
2021-09-13,1,92
2021-09-14,1,90
2021-09-15,1,98
2021-09-16,1,99
2021-09-17,0,94
2021-09-18,0,97
2021-09-19,0,87
2021-09-20,0,96
2021-09-21,0,81
2021-09-22,0,102
2021-09-23,0,101
2021-09-24,0,88
2021-09-25,0,85
2021-09-26,0,82
2021-09-27,0,93
2021-09-28,1,93
2021-09-29,0,94
2021-09-30,0,85
2021-10-01,1,81
2021-10-02,1,91
2021-10-03,1,74
2021-10-04,0,78
2021-10-05,0,84
2021-10-06,0,83
2021-10-07,0,81
2021-10-08,0,95
2021-10-09,0,89
2021-10-10,0,86
2021-10-11,0,88
2021-10-12,1,89
2021-10-13,0,89
2021-10-14,0,86
2021-10-15,0,86
2021-10-16,1,79
2021-10-17,0,90
2021-10-18,0,96
2021-10-19,0,88
2021-10-20,0,90
2021-10-21,0,84
2021-10-22,0,86
2021-10-23,0,86
2021-10-24,0,85
2021-10-25,0,94
2021-10-26,1,90
2021-10-27,0,82
2021-10-28,1,82
2021-10-29,0,76
2021-10-30,0,84
2021-10-31,0,86
2021-11-01,0,83
2021-11-02,0,88
2021-11-03,0,80
2021-11-04,0,85
2021-11-05,0,83
2021-11-06,0,74
2021-11-07,0,72
2021-11-08,0,84
2021-11-09,1,85
2021-11-10,0,88
2021-11-11,0,92
2021-11-12,0,85
2021-11-13,0,89
2021-11-14,1,73
2021-11-15,0,80
2021-11-16,0,79
2021-11-17,0,81
2021-11-18,0,90
2021-11-19,0,86
2021-11-20,0,85
2021-11-21,1,71
2021-11-22,0,80
2021-11-23,0,89
2021-11-24,0,82
2021-11-25,0,78
2021-11-26,0,83
2021-11-27,0,79
2021-11-28,0,81
2021-11-29,0,83
2021-11-30,0,81
2021-12-01,0,88
2021-12-02,0,82
2021-12-03,0,90
2021-12-04,0,77
2021-12-05,0,76
2021-12-06,0,82
2021-12-07,0,85
2021-12-08,0,79
2021-12-09,0,82
2021-12-10,1,83
2021-12-11,0,76
2021-12-12,0,75
2021-12-13,0,74
2021-12-14,0,81
2021-12-15,0,83
2021-12-16,0,84
2021-12-17,0,76
2021-12-18,0,86
2021-12-19,1,78
2021-12-20,1,81
2021-12-21,0,77
2021-12-22,0,79
2021-12-23,0,82
2021-12-24,0,73
2021-12-25,0,83
2021-12-26,0,74
2021-12-27,0,82
2021-12-28,0,80
2021-12-29,0,82
2021-12-30,0,74
2021-12-31,0,79
2022-01-01,0,73
2022-01-02,0,74
2022-01-03,0,78
2022-01-04,0,74
2022-01-05,0,79
2022-01-06,0,87
2022-01-07,0,71
2022-01-08,0,85
2022-01-09,0,3
2022-01-10,1,0
2022-01-11,1,86
2022-01-12,0,65
2022-01-13,0,81
2022-01-14,0,79
2022-01-15,1,83
2022-01-16,0,82
2022-01-17,0,81
2022-01-18,0,81
2022-01-19,0,87
2022-01-20,0,80
2022-01-21,0,80
2022-01-22,0,86
2022-01-23,0,68
2022-01-24,1,83
2022-01-25,1,76
2022-01-26,0,74
2022-01-27,0,72
2022-01-28,0,74
2022-01-29,0,70
2022-01-30,0,77
2022-01-31,0,66
2022-02-01,1,54
2022-02-02,0,60
2022-02-03,0,73
2022-02-04,0,71
2022-02-05,0,69
2022-02-06,0,76
2022-02-07,0,70
2022-02-08,0,76
2022-02-09,0,84
2022-02-10,0,74
2022-02-11,0,70
2022-02-12,0,79
2022-02-13,0,74
2022-02-14,0,74
2022-02-15,1,72
2022-02-16,0,82
2022-02-17,1,71
2022-02-18,0,85
2022-02-19,0,74
2022-02-20,1,80
2022-02-21,0,78
2022-02-22,0,81
2022-02-23,0,69
2022-02-24,0,82
2022-02-25,0,69
2022-02-26,0,73
2022-02-27,0,71
2022-02-28,0,75
2022-03-01,0,75
2022-03-02,0,72
2022-03-03,0,81
2022-03-04,0,75
2022-03-05,0,72
2022-03-06,0,70
2022-03-07,0,79
2022-03-08,0,75
2022-03-09,0,87
2022-03-10,1,72
2022-03-11,0,80
2022-03-12,0,73
2022-03-13,0,69
2022-03-14,0,66
2022-03-15,0,78
2022-03-16,0,71
2022-03-17,0,72
2022-03-18,1,81
2022-03-19,0,67
2022-03-20,0,74
2022-03-21,1,74
2022-03-22,0,72
2022-03-23,0,64
2022-03-24,1,80
2022-03-25,0,70
2022-03-26,0,70
2022-03-27,0,74
2022-03-28,1,76
2022-03-29,0,73
2022-03-30,0,73
2022-03-31,0,67
2022-04-01,0,76
2022-04-02,0,64
2022-04-03,0,72
2022-04-04,0,65
2022-04-05,0,76
2022-04-06,0,77
2022-04-07,0,77
2022-04-08,0,71
2022-04-09,0,62
2022-04-10,0,76
2022-04-11,0,77
2022-04-12,0,81
2022-04-13,0,77
2022-04-14,0,71
2022-04-15,0,78
2022-04-16,0,78
2022-04-17,0,71
2022-04-18,0,86
2022-04-19,0,74
2022-04-20,1,76
2022-04-21,0,78
2022-04-22,0,81
2022-04-23,0,64
2022-04-24,1,67
2022-04-25,0,76
2022-04-26,1,63
2022-04-27,0,68
2022-04-28,0,73
2022-04-29,1,83
2022-04-30,0,68
2022-05-01,0,63
2022-05-02,1,56
2022-05-03,0,63
2022-05-04,1,68
2022-05-05,0,62
2022-05-06,0,65
2022-05-07,0,80
2022-05-08,0,68
2022-05-09,0,70
2022-05-10,0,72
2022-05-11,0,87
2022-05-12,0,71
2022-05-13,0,67
2022-05-14,0,68
2022-05-15,0,56
2022-05-16,0,62
2022-05-17,0,68
2022-05-18,0,61
2022-05-19,0,61
2022-05-20,0,67
2022-05-21,0,62
2022-05-22,0,57
2022-05-23,1,60
2022-05-24,0,70
2022-05-25,0,68
2022-05-26,0,64
2022-05-27,0,59
2022-05-28,0,66
2022-05-29,0,54
2022-05-30,0,63
2022-05-31,0,69
2022-06-01,0,67
2022-06-02,1,72
2022-06-03,0,60
2022-06-04,0,64
2022-06-05,0,52
2022-06-06,0,58
2022-06-07,0,67
2022-06-08,0,66
2022-06-09,0,63
2022-06-10,0,67
2022-06-11,1,63
2022-06-12,0,65
2022-06-13,0,61
2022-06-14,0,61
2022-06-15,0,59
2022-06-16,0,63
2022-06-17,0,69
2022-06-18,0,56
2022-06-19,1,68
2022-06-20,1,64
2022-06-21,0,65
2022-06-22,0,65
2022-06-23,0,64
2022-06-24,0,62
2022-06-25,0,63
2022-06-26,0,67
2022-06-27,0,70
2022-06-28,0,64
2022-06-29,0,59
2022-06-30,0,74
2022-07-01,0,61
2022-07-02,0,64
2022-07-03,0,54
2022-07-04,0,70
2022-07-05,2,69
2022-07-06,1,65
2022-07-07,0,63
2022-07-08,0,64
2022-07-09,0,63
2022-07-10,1,56
2022-07-11,0,67
2022-07-12,0,69
2022-07-13,0,68
2022-07-14,0,59
2022-07-15,0,64
2022-07-16,0,51
2022-07-17,0,53
2022-07-18,0,67
2022-07-19,0,58
2022-07-20,0,70
2022-07-21,0,56
2022-07-22,0,65
2022-07-23,0,63
2022-07-24,1,31
2022-07-25,0,68
2022-07-26,0,58
2022-07-27,0,63
2022-07-28,0,63
2022-07-29,0,64
2022-07-30,0,54
2022-07-31,0,54
2022-08-01,0,62
2022-08-02,0,70
2022-08-03,0,63
2022-08-04,1,55
2022-08-05,1,72
2022-08-06,0,61
2022-08-07,0,58
2022-08-08,0,67
2022-08-09,0,65
2022-08-10,0,68
2022-08-11,0,65
2022-08-12,0,66
2022-08-13,0,57
2022-08-14,1,57
2022-08-15,0,57
2022-08-16,0,71
2022-08-17,0,61
2022-08-18,0,63
2022-08-19,0,62
2022-08-20,1,62
2022-08-21,0,55
2022-08-22,0,68
2022-08-23,0,61
2022-08-24,0,65
2022-08-25,0,56
2022-08-26,0,62
2022-08-27,0,56
2022-08-28,0,55
2022-08-29,0,59
2022-08-30,0,65
2022-08-31,1,66
2022-09-01,0,61
2022-09-02,0,72
2022-09-03,0,53
2022-09-04,0,57
2022-09-05,0,57
2022-09-06,0,66
2022-09-07,0,62
2022-09-08,0,62
2022-09-09,0,67
2022-09-10,0,53
2022-09-11,0,54
2022-09-12,0,57
2022-09-13,0,60
2022-09-14,0,66
2022-09-15,1,65
2022-09-16,0,56
2022-09-17,0,60
2022-09-18,0,53
2022-09-19,0,69
2022-09-20,0,66
2022-09-21,0,68
2022-09-22,0,64
2022-09-23,0,57
2022-09-24,0,58
2022-09-25,0,51
2022-09-26,0,62
2022-09-27,0,64
2022-09-28,0,68
2022-09-29,0,56
2022-09-30,0,58
2022-10-01,0,52
2022-10-02,0,50
2022-10-03,0,55
2022-10-04,0,56
2022-10-05,0,51
2022-10-06,0,58
2022-10-07,0,59
2022-10-08,0,63
2022-10-09,0,65
2022-10-10,0,65
2022-10-11,0,57
2022-10-12,0,70
2022-10-13,0,64
2022-10-14,0,65
2022-10-15,0,58
2022-10-16,1,60
2022-10-17,0,56
2022-10-18,1,57
2022-10-19,0,71
2022-10-20,0,62
2022-10-21,0,65
2022-10-22,0,58
2022-10-23,1,52
2022-10-24,0,56
2022-10-25,0,64
2022-10-26,0,57
2022-10-27,0,70
2022-10-28,0,46
2022-10-29,1,56
2022-10-30,0,64
2022-10-31,1,66
2022-11-01,0,59
2022-11-02,0,61
2022-11-03,0,70
2022-11-04,1,69
2022-11-05,1,57
2022-11-06,0,62
2022-11-07,0,63
2022-11-08,0,55
2022-11-09,0,62
2022-11-10,0,62
2022-11-11,0,62
2022-11-12,0,56
2022-11-13,1,57
2022-11-14,0,59
2022-11-15,0,55
2022-11-16,0,48
2022-11-17,0,54
2022-11-18,0,48
2022-11-19,1,56
2022-11-20,0,55
2022-11-21,0,62
2022-11-22,0,59
2022-11-23,0,54
2022-11-24,1,60
2022-11-25,0,64
2022-11-26,0,52
2022-11-27,0,53
2022-11-28,0,66
2022-11-29,1,59
2022-11-30,0,62
2022-12-01,0,56